Regional Weather Roundup
Issued by NWS Grand Forks, ND

Home | Current Version | Previous Version | Text Only | Print | Product List | Glossary On
Versions: 1 2 3 4 5 6 7 8 9 10 11 12 13 14 15 16 17 18 19 20 21 22 23 24 25 26 27 28 29 30 31 32 33 34 35 36 37 38 39 40 41 42 43 44 45 46 47 48 49 50
704
ASUS43 KFGF 062031
RWRFGF
PRAIRIE TO PINES  WEATHER ROUNDUP
NATIONAL WEATHER SERVICE EASTERN NORTH DAKOTA/GRAND FORKS ND
200 PM CST SAT FEB 06 2016

 **SATELLITE DATA USED TO AUGMENT SKY COVER AT AUTOMATED STATIONS**
 *****  WEATHER ACROSS EASTERN NORTH DAKOTA  *****

CITY           SKY/WX    TMP DP  RH WIND       PRES   REMARKS
GRAND FORKS    CLOUDY    38  30  73 S13       29.65F
GRAND FRKS AFB CLOUDY    39  30  69 SW8       29.63F
GRAND FRKS NWS   N/A     34 N/A N/A S13         N/A  WCI  25
DEVILS LAKE    CLOUDY    40  30  67 SW13      29.61F
FARGO          CLOUDY    38  29  70 S15       29.72F
WAHPETON ARPT  CLOUDY    36  28  75 SW8       29.77F
$$

 ***** WEATHER ACROSS CENTRAL AND WESTERN NORTH DAKOTA  *****

CITY           SKY/WX    TMP DP  RH WIND       PRES   REMARKS
BISMARCK       CLOUDY    51  28  41 SW9       29.70F
MINOT          CLOUDY    50  26  39 SW16      29.60F
JAMESTOWN      CLOUDY    41  30  65 SW10      29.66F
MINOT AFB      CLOUDY    49  29  45 W20G29    29.58F
GARRISON         N/A     47  27  45 W16       29.64F
WILLISTON      PTSUNNY   48  27  44 W24G39    29.65F
DICKINSON      CLOUDY    47  23  38 W14       29.71F
HETTINGER      CLOUDY    52  21  29 W18G29    29.78F
$$

 *****  OTHER AIRPORT OBSERVATIONS IN OUR AREA  *****

CITY           SKY/WX    TMP DP  RH WIND       PRES   REMARKS
WALHALLA       FAIR      36  36 100 S6        29.56F
GRAFTON AIRPOR MIX PCPN  36  32  87 S12       29.61F
VALLEY CITY AR FAIR      41  37  87 SW15      29.68F
CANDO          FAIR      36  32  87 SW9       29.59F
CAVALIER APRT  MIX PCPN  32  28  86 S13       29.58F WCI  22
GWINNER          N/A     39  36  87 SW13      29.75F
SHEYENNE NWR     N/A     41  30  65 SW13      29.95S
ROLLA          FAIR      37  30  75 SW16      29.53F
 ***** THE ABOVE OBSERVATIONS ARE NON NWS ARE NOT QUALITY
       CONTROLLED AND MAY MIS-REPORT RAIN FOR SNOW...
$$

  *****  WEATHER ACROSS NORTHERN MINNESOTA  *****

CITY           SKY/WX    TMP DP  RH WIND       PRES   REMARKS
FLAG ISLAND    CLOUDY    27  21  80 SE5       29.69F WCI  21
WARROAD        LGT SNOW  32  27  80 S9        29.67F WCI  24
ROSEAU         CLOUDY    32  27  80 S12       29.66F WCI  23
HALLOCK        CLOUDY    32  28  86 S18       29.61F WCI  20
THF RVR FALLS  CLOUDY    34  27  75 S15       29.67F WCI  24
BAUDETTE       CLOUDY    32  22  66 S9        29.70F WCI  24
WASKISH        LGT RAIN  36  27  69 SE7       29.70F
CROOKSTON      CLOUDY    34  30  86 S18       29.67F WCI  23
STEPHEN NDAWN    N/A     32  28  86 S16         N/A  WCI  21
GREENBUSH NDAW   N/A     30  27  86 S10         N/A  WCI  21
$$
  *****  WEATHER ACROSS CENTRAL AND WEST MINNESOTA  *****

CITY           SKY/WX    TMP DP  RH WIND       PRES   REMARKS
FOSSTON        CLOUDY    34  27  75 S16G22    29.70F WCI  23
BEMIDJI        CLOUDY    34  25  69 S9        29.71F
PARK RAPIDS    CLOUDY    37  25  61 S10       29.74F
ELBOW LAKE     FAIR      36  29  76 S13       29.78F HAZE
WADENA         MOSUNNY   37  27  65 S13       29.74F
DETROIT LAKES  CLOUDY    36  28  75 SW12      29.75S
MOORHEAD       MOSUNNY   36  30  80 S10       29.73F
FERGUS FALLS   CLOUDY    39  30  70 SW12      29.79F
MORRIS MN      CLOUDY    39  28  65 SW9       29.79F
STAPLES        CLOUDY    37  25  60 S10       29.77F
$$
  *****  WEATHER ELSEWHERE ACROSS MINNESOTA  *****

CITY           SKY/WX    TMP DP  RH WIND       PRES   REMARKS
DULUTH         MOSUNNY   33  23  66 S14G22    29.84F WCI  23
INTRNTL FALLS  CLOUDY    31  21  66 SE9       29.75F WCI  23
ELY            MOSUNNY   30  19  64 SE8       29.79F WCI  23
CLOQUET        CLOUDY    36  25  64 S14       29.83F
WHEATON        CLOUDY    41  30  65 SW12      29.79F
BRAINERD       CLOUDY    34  25  69 S14       29.82F WCI  25
HIBBING        CLOUDY    33  22  63 S10G17    29.79F WCI  25
ALEXANDRIA     MOSUNNY   38  25  59 SW16      29.80F
SAINT CLOUD    CLOUDY    36  25  64 S15       29.88F
MINNEAPOLIS    PTSUNNY   36  26  67 S12       29.98F
$$

  *****  WEATHER ACROSS SOUTH DAKOTA  *****

CITY           SKY/WX    TMP DP  RH WIND       PRES   REMARKS
SIOUX FALLS    CLOUDY    34  23  64 S13       29.95F WCI  25
BROOKINGS      CLOUDY    36  27  69 S15       29.87F
WATERTOWN      CLOUDY    35  26  69 SW18      29.83F WCI  24
HURON          CLOUDY    39  29  67 S13       29.87F
SISSETON         N/A     39  28  64 W24G32    29.75F
ABERDEEN       CLOUDY    41  30  65 S12       29.80F
MITCHELL       CLOUDY    40  30  67 S13       29.92F
PIERRE         CLOUDY    46  27  47 SW14      29.82F
MOBRIDGE       CLOUDY    51  28  41 SW9       29.74F
RAPID CITY     CLOUDY    49  29  46 SW3       29.87F
$$

  *****  SOME WEATHER IN NEARBY STATES *****

CITY           SKY/WX    TMP DP  RH WIND       PRES   REMARKS
GLASGOW MT     PTSUNNY   43  23  45 W31G47    29.72F
GREAT FALLS MT MOSUNNY   41  18  39 W35G53    29.98R
CHEYENNE WY    PTSUNNY   38  20  48 W29G38    30.09F
SCOTTSBLUFF NE CLOUDY    41  24  51 W24G33    30.05F
OMAHA NE       MOSUNNY   40  26  57 S15       30.13F
DES MOINES IA  MOSUNNY   35  28  75 SW10      30.16F
DAVENPORT IA   SUNNY     41  30  65 SW9       30.16F
CHICAGO IL     MOSUNNY   39  28  64 W13       30.16F
EAU CLAIRE WI  MOSUNNY   33  22  63 SW12      30.01F WCI  24
LA CROSSE WI   SUNNY     32  24  72 SW14      30.10F WCI  22
$$

  *****  SOME NATIONAL WEATHER *****

CITY           SKY/WX    TMP DP  RH WIND       PRES   REMARKS
LA GUARDIA NY  PTSUNNY   40  20  44 SW14      30.30F
RALEIGH NC     MOSUNNY   47  17  30 CALM      30.32F
ATLANTA GA     PTSUNNY   51  17  26 VRB3      30.25F
NEW ORLEANS LA MOSUNNY   57  23  26 N10       30.26F
OKLAHOMA CITY  MOSUNNY   50  26  39 NW6       30.33F
ALBUQUERQUE NM SUNNY     46   7  20 N9        30.40F
SALT LAKE CITY MOSUNNY   37  21  52 S3        30.51F
LOS ANGELES CA SUNNY     74  19  12 W5        30.23F
BOISE ID       PTSUNNY   43  31  62 N3        30.45F
SEATTLE WA     CLOUDY    47  39  74 SW12      30.47S
$$

*** WEATHER ACROSS MANITOBA...SASKATCHEWAN AND ONTARIO ***
                ***ONTARIO***

CITY           SKY/WX    TMP DP  RH WIND       PRES   REMARKS
GERALDTON      MOSUNNY    7  -6  56 W3        29.97F
THUNDER BAY    FLURRIES  23  18  80 E10       29.94F WCI  12
SIOUX LOOKOUT  FLURRIES  16  12  86 E7        29.81F WCI   6
TORONTO        MOSUNNY   37  18  44 W24G32    30.12F
BIG TROUT LK   SUNNY    -13 -24  58 SE5       30.05F WCI -25
PICKLE LAKE    MOSUNNY    1 -11  55 E6        29.93F WCI -10
DRYDEN         CLOUDY    21  16  79 SE10G17   29.76F WCI  10
KENORA         PTSUNNY   25  19  80 SE10      29.70F WCI  15
$$
                *** MANITOBA***

CITY           SKY/WX    TMP DP  RH WIND       PRES   REMARKS
BRANDON        PTSUNNY   37  32  81 SW6       29.49F
DAUPHIN        PTSUNNY   28  25  86 SE9       29.44F WCI  20
ISLAND LAKE    PTSUNNY   -2  -9  71 E6        29.84F WCI -14
PILOT MOUND      N/A     34  30  86 SW16        N/A  WCI  23
THE PAS        FLURRIES  16  10  79 SE13G20   29.49F WCI   2
THOMPSON       FLURRIES  -4 -15  59 E7        29.78F WCI -18
WINNIPEG       CLOUDY    28  23  80 SE16      29.59F WCI  17
LYNN LAKE      LGT SNOW  -2  -6  84 SE13G20   29.57F WCI -21
CHURCHILL      MOSUNNY  -24 -33  62 SE7       30.12F WCI -42
GILLAM         PTSUNNY  -13 -24  58 SE5       29.99F WCI -25
$$
                ***SASKATCHEWAN***

CITY           SKY/WX    TMP DP  RH WIND       PRES   REMARKS
ESTEVAN        PTSUNNY   41  30  65 SW15      29.55F
KINDERSLEY     PTSUNNY   39  23  52 NW22G37   29.61R
LLOYDMINSTER   PTSUNNY   39  23  52 W32G46    29.51R
PRINCE ALBERT  PTSUNNY   28  19  69 NW7       29.36R WCI  21
REGINA         MOSUNNY   43  34  70 W26G35    29.43F
YORKTON        SUNNY     43  30  61 SW13      29.35F
N. BATTLEFORD  PTSUNNY   41  27  56 W24G38    29.50R
LA RONGE       FLURRIES  18  14  86 SE8       29.36F WCI   7
SASKATOON      PTSUNNY   37  30  75 NW25G33   29.45R
SWIFT CURRENT  PTSUNNY   41  30  65 NW33G40   29.61R
$$
NOTE: THESE ARE AUTOMATED STATIONS WITH LIMITED QUALITY CONTROL
      "FAIR" INDICATES FEW OR NO CLOUDS BELOW 12,000 FEET WITH NO
      SIGNIFICANT WEATHER AND/OR OBSTRUCTIONS TO VISIBILITY.
      SKY/WX - SKY CONDITION AND SIGNIFICANT WEATHER.
      TMP - AIR TEMPERATURE.    DP   - DEWPOINT TEMPERATURE.
      RH  - RELATIVE HUMIDITY.  PRES - PRESSURE.
      HX  - HEAT INDEX.         WCI  - WIND CHILL INDEX.
$




USA.gov is the U.S. government's official web portal to all federal, state and local government web resources and services.